Flag Weather past 2 weeks in San Juan, Puerto Rico

Now
87 °F

Scattered clouds.


Feels Like: 99 °F
Forecast: 80 / 88 °F
Wind: 9 mph from North

Location: Luis Munoz Marin

Current Time: Oct 30, 2014 at 2:17:04 PM

Latest Report: Oct 30, 2014 at 1:56 PM


Visibility: 10 mi

Pressure: 29.78 "Hg

Humidity: 72%

Dew point: 77 °F

Location of San JuanLocation

Historic Weather in San Juan — Graph

°F

San Juan temperature yesterday

Maximum temperature yesterday: 89 °F (at 10:56 AM)
Minimum temperature yesterday: 81 °F (at 6:56 AM)
Average temperature yesterday: 85 °F

Past Weeks' High & Low Weather Summary

 TemperatureHumidityPressure
High93 °F (Oct 28, 9:56 AM)97% (Oct 30, 4:56 AM)30.01 "Hg (Oct 30, 4:56 AM)
Low77 °F (Oct 23, 5:56 AM)52% (Oct 15, 12:56 PM)29.80 "Hg (Oct 30, 3:56 AM)
Average84 °F76%29.92 "Hg
* Reported Oct 15 12:56 PM — Oct 30 12:56 PM, San Juan, Weather by CustomWeather, © 2014

Note: Actual official high and low records may vary slightly from our data, if they occured in-between our weather recording intervals... More about our weather records

Advertising

San Juan weather history for previous 24 hours

 ConditionsComfort  
Time TempWeatherWind HumidityBarometerVisibility
12:56 PM
Oct 30
87 °FScattered clouds.8 mph72%29.80 "Hg10 mi
11:56 AM87 °FScattered clouds.6 mph72%29.83 "Hg10 mi
10:56 AM86 °FScattered clouds.6 mph75%29.85 "Hg10 mi
9:56 AM86 °FScattered clouds.3 mph75%29.86 "Hg10 mi
8:56 AM85 °FScattered clouds.No wind80%29.85 "Hg10 mi
7:56 AM82 °FLight rain. Scattered clouds.No wind91%29.84 "Hg10 mi
6:56 AM80 °FPartly cloudy.5 mph94%29.83 "Hg10 mi
5:56 AM80 °FPassing clouds.3 mph94%29.81 "Hg10 mi
4:56 AM79 °FPartly cloudy.3 mph97%29.80 "Hg10 mi
3:56 AM79 °FLight rain. Overcast.3 mph90%29.80 "Hg9 mi
2:56 AM80 °FPartly cloudy.5 mph94%29.80 "Hg10 mi
1:56 AM80 °FPassing clouds.3 mph94%29.81 "Hg10 mi
12:56 AM80 °FPartly cloudy.No wind94%29.83 "Hg10 mi
11:56 PM
Oct 29
82 °FPartly cloudy.6 mph85%29.84 "Hg10 mi
10:56 PM81 °FPassing clouds.No wind88%29.86 "Hg10 mi
9:56 PM83 °FPartly cloudy.8 mph79%29.87 "Hg10 mi
8:56 PM83 °FPassing clouds.8 mph79%29.87 "Hg10 mi
7:56 PM84 °FPassing clouds.10 mph77%29.87 "Hg10 mi
6:56 PM83 °FPassing clouds.7 mph82%29.85 "Hg10 mi
5:56 PM85 °FScattered clouds.12 mph75%29.85 "Hg10 mi
4:56 PM86 °FScattered clouds.13 mph75%29.85 "Hg10 mi
3:56 PM87 °FScattered clouds.9 mph69%29.85 "Hg10 mi
2:56 PM88 °FScattered clouds.13 mph70%29.86 "Hg10 mi
Weather by CustomWeather, © 2014

See weather overviewHow to use our weather pages